Погода в Бавлены

Россия / Владимирская область     56°23′40″N   39°33′50″E
темп.,
°C
ветер,
м/с
пор.,
м/с
влажн.,
%
обл.,
%
осадки,
мм/ч
давл.,
гПа
погр.,
м
7 марта, вс
вс700:00−14юз44920 0.0 101162
03:00−13ююз510932 0.0 1008184
06:00−10ююз7148997 0.0 1003511
09:00−8ююз8159399 0.8 999794
12:00−5ююз91492100 0.6 994997
15:00−3юз81394100 1.9 992994
18:00−6зсз51274100 1.1 992508
21:00−11зюз487867 1.1 993104
8 марта, пн
пн800:00−9юз499468 0.1 994242
03:00−8зюз6119384 0.6 994647
06:00−11юз41093100 0.1 993262
09:00−10з4892100 0.1 994464
12:00−7сз4687100 0.1 996740
15:00−7сз6886100 0.3 999942
18:00−10ссз61192100 0.3 1003506
21:00−13ссз5119394 0.4 1006350
9 марта, вт
вт900:00−15ссз499696 0.1 1009292
03:00−18сз489898 0.1 1011144
06:00−22сз479996 0.0 1013112
09:00−21ссз479688 0.1 1015246
12:00−17сз479180 0.0 1016437
15:00−15сз578790 0.0 1017634
18:00−19сз4895100 0.0 1018150
21:00−23ссз479899 0.1 1021114
10 марта, ср
ср1000:00−26ссз349925 0.0 102267
03:00−27ссз349931 0.0 102351
06:00−28ссз34990 0.0 102447
09:00−25ссз35960 0.0 1026162
12:00−20ссз24840 0.0 1026317
15:00−16ссз23740 0.0 1026478
18:00−20з22850 0.0 102620
21:00−21з33899 0.0 102722
11 марта, чт
чт1100:00−21з238868 0.0 102620
03:00−22зюз228666 0.0 102720
06:00−22ююз238473 0.0 102620
09:00−20юз117641 0.0 103054
12:00−14ю23710 0.0 1029284
15:00−11ююв34760 0.0 1027451
18:00−15ююв44870 0.0 102658
21:00−17ююв512920 0.0 1025232